TimeEST,TemperatureF,Dew PointF,Humidity,Sea Level PressureIn,VisibilityMPH,Wind Direction,Wind SpeedMPH,Gust SpeedMPH,PrecipitationIn,Events,Conditions,WindDirDegrees,DateUTC
12:54 AM,12.9,8.1,81,30.05,6.0,WSW,10.4,-,0.00,Snow,Light Snow,240,2014-01-18 05:54:00
1:42 AM,12.2,8.6,85,29.99,6.0,SSW,6.9,-,0.00,Snow,Light Snow,210,2014-01-18 06:42:00
1:54 AM,12.9,9.0,84,30.04,5.0,SW,8.1,-,0.00,Snow,Light Snow,220,2014-01-18 06:54:00
2:54 AM,14.0,9.0,80,30.04,4.0,SW,8.1,-,0.00,Snow,Light Snow,230,2014-01-18 07:54:00
3:27 AM,14.0,8.6,79,30.00,6.0,SSW,8.1,-,0.00,Snow,Light Snow,210,2014-01-18 08:27:00
3:54 AM,14.0,9.0,80,30.04,6.0,SSW,9.2,-,0.00,Snow,Light Snow,210,2014-01-18 08:54:00
4:54 AM,12.9,9.0,84,30.02,5.0,SSW,8.1,-,0.00,Snow,Light Snow,210,2014-01-18 09:54:00
5:19 AM,10.4,6.8,85,29.98,7.0,SSW,6.9,-,0.00,Snow,Light Snow,210,2014-01-18 10:19:00
5:54 AM,14.0,10.0,84,30.03,6.0,SSW,6.9,-,0.00,Snow,Light Snow,210,2014-01-18 10:54:00
6:54 AM,15.1,10.0,80,30.02,9.0,SW,10.4,-,0.00,Snow,Light Snow,220,2014-01-18 11:54:00
7:54 AM,16.0,10.0,77,30.01,9.0,SSW,10.4,-,0.00,Snow,Light Snow,210,2014-01-18 12:54:00
8:54 AM,14.0,9.0,80,30.01,10.0,South,9.2,-,0.00,,Overcast,190,2014-01-18 13:54:00
9:54 AM,16.0,10.9,81,29.99,10.0,South,11.5,-,0.00,Snow,Light Snow,180,2014-01-18 14:54:00
10:54 AM,18.0,10.0,71,29.99,9.0,South,9.2,-,0.00,Snow,Light Snow,190,2014-01-18 15:54:00
11:54 AM,19.9,10.9,68,29.94,10.0,South,11.5,-,0.00,,Overcast,180,2014-01-18 16:54:00
12:54 PM,21.0,12.0,68,29.88,9.0,SSE,15.0,-,0.00,Snow,Light Snow,160,2014-01-18 17:54:00
1:47 PM,21.2,12.2,68,29.83,6.0,South,10.4,-,0.00,Snow,Light Snow,170,2014-01-18 18:47:00
1:54 PM,21.9,12.9,68,29.87,1.5,South,15.0,18.4,0.00,Snow,Light Snow,170,2014-01-18 18:54:00
2:28 PM,21.2,15.8,80,29.80,0.8,SSE,12.7,-,0.00,Snow,Light Snow,150,2014-01-18 19:28:00
2:54 PM,21.0,17.1,85,29.80,0.8,ESE,13.8,-,0.01,Snow,Light Snow,110,2014-01-18 19:54:00
3:02 PM,21.2,17.6,86,29.75,1.8,ESE,16.1,-,0.00,Snow,Light Snow,120,2014-01-18 20:02:00
3:24 PM,21.2,17.6,86,29.75,0.5,ESE,15.0,-,0.00,Fog-Snow,Light Snow,120,2014-01-18 20:24:00
3:40 PM,21.2,17.6,86,29.74,1.0,SE,17.3,-,0.00,Snow,Light Snow,130,2014-01-18 20:40:00
3:54 PM,21.9,17.1,82,29.78,1.8,SE,16.1,24.2,0.00,Snow,Light Snow,130,2014-01-18 20:54:00
4:10 PM,21.2,17.6,86,29.75,0.8,SE,15.0,-,0.00,Snow,Light Snow,130,2014-01-18 21:10:00
4:54 PM,21.9,18.0,85,29.80,0.5,SE,12.7,-,0.01,Fog-Snow,Light Snow,140,2014-01-18 21:54:00
5:36 PM,21.2,19.4,93,29.77,0.5,SE,11.5,-,0.04,Fog-Snow,Snow,130,2014-01-18 22:36:00
5:54 PM,21.9,19.0,89,29.81,0.8,SE,12.7,-,0.05,Snow,Light Snow,140,2014-01-18 22:54:00
6:02 PM,21.2,19.4,93,29.77,1.2,SE,13.8,-,0.00,Snow,Light Snow,140,2014-01-18 23:02:00
6:22 PM,21.2,19.4,93,29.77,3.0,SE,10.4,-,0.01,Snow,Light Snow,130,2014-01-18 23:22:00
6:50 PM,23.0,19.4,86,29.77,2.5,SE,11.5,-,0.02,Snow,Light Snow,130,2014-01-18 23:50:00
6:54 PM,23.0,19.9,88,29.81,2.5,SE,11.5,-,0.02,Snow,Light Snow,130,2014-01-18 23:54:00
7:21 PM,23.0,19.4,86,29.76,1.5,SE,10.4,-,0.02,Snow,Light Snow,130,2014-01-19 00:21:00
7:39 PM,23.0,19.4,86,29.75,3.0,SE,10.4,-,0.03,Snow,Light Snow,130,2014-01-19 00:39:00
7:54 PM,23.0,19.9,88,29.78,4.0,ESE,9.2,-,0.03,Snow,Light Snow,120,2014-01-19 00:54:00
8:24 PM,24.8,21.2,86,29.75,5.0,SSE,5.8,-,0.00,Snow,Light Snow,150,2014-01-19 01:24:00
8:39 PM,24.8,21.2,86,29.75,4.0,SE,11.5,17.3,0.01,Snow,Light Snow,130,2014-01-19 01:39:00
8:54 PM,24.1,21.0,88,29.78,4.0,SSE,6.9,-,0.01,Snow,Light Snow,150,2014-01-19 01:54:00
9:32 PM,24.8,21.2,86,29.74,2.5,SE,5.8,-,0.01,Snow,Light Snow,140,2014-01-19 02:32:00
9:46 PM,24.8,21.2,86,29.74,4.0,SE,5.8,-,0.01,Snow,Light Snow,140,2014-01-19 02:46:00
9:54 PM,24.1,21.9,91,29.78,6.0,SE,3.5,-,0.01,Snow,Light Snow,130,2014-01-19 02:54:00
10:10 PM,24.8,21.2,86,29.74,2.0,ESE,3.5,-,0.00,Snow,Light Snow,110,2014-01-19 03:10:00
10:21 PM,24.8,21.2,86,29.75,5.0,ESE,3.5,-,0.00,Snow,Light Snow,120,2014-01-19 03:21:00
10:28 PM,24.8,23.0,93,29.75,6.0,Calm,Calm,-,0.00,Snow,Light Snow,0,2014-01-19 03:28:00
10:54 PM,25.0,21.9,88,29.78,7.0,Calm,Calm,-,0.00,Snow,Light Snow,0,2014-01-19 03:54:00
11:54 PM,26.1,23.0,88,29.78,8.0,Calm,Calm,-,0.00,Snow,Light Snow,0,2014-01-19 04:54:00